Temperature
19 18 16 15 15 15 14 14 14 13 13 13 12 11 11 11 11 11 11 11 11 11 12 12 12 12 12 12 12 12 11 11 12 13 13 12 11 12 12 12 12 12 12
19 18 16 15 15 15 14 14 13 13 13 13 11 11 11 10 10 11 11 10 10 10 11 11 11 12 12 12 11 11 11 11 12 13 13 13 12 12 12 12 12 12 12
19 18 16 15 15 15 14 14 13 13 13 12 11 11 11 11 11 10 10 10 10 10 10 11 11 11 11 12 11 11 10 11 12 12 13 13 13 12 12 12 12 12 12
18 17 16 15 15 14 14 13 13 13 13 12 11 11 11 11 11 11 10 10 10 10 11 11 11 11 11 11 11 10 10 11 12 12 12 12 12 12 11 12 12 12 12
19 17 16 15 15 14 14 13 13 13 13 12 11 11 11 12 11 10 10 10 10 11 11 11 11 10 11 11 10 10 11 11 12 12 12 11 12 11 11 12 13 13 13
19 18 17 15 15 14 14 13 13 13 13 12 12 11 11 11 11 10 10 11 11 11 12 12 11 11 11 11 11 10 10 11 12 12 12 11 11 11 11 13 13 14 14
20 18 17 16 15 14 14 13 13 13 13 13 12 12 12 11 11 10 11 11 12 12 12 12 12 11 11 12 11 11 11 11 12 12 12 12 12 12 11 12 14 14 14
19 18 17 16 15 14 14 14 13 13 13 13 13 12 12 12 11 11 11 12 12 11 11 11 11 11 11 12 12 12 12 12 12 12 12 12 12 12 11 11 13 13 13
19 18 17 16 15 15 14 14 14 13 13 14 14 14 14 14 13 12 13 13 12 11 10 10 11 11 12 12 13 13 13 12 12 12 12 12 12 12 11 10 12 13 13
20 18 17 16 16 15 15 15 14 14 14 14 15 15 15 14 14 14 14 13 12 11 11 11 11 11 11 12 13 13 13 13 12 12 12 12 12 12 12 11 11 12 13
22 20 18 17 16 16 15 16 15 15 15 15 15 15 15 15 15 15 14 14 13 13 12 12 11 11 12 12 13 13 13 13 13 13 12 12 12 12 12 11 11 12 12
23 21 19 18 17 16 16 16 16 16 16 16 16 16 16 15 15 15 15 14 14 13 13 12 12 12 12 13 13 13 13 13 13 13 12 12 12 12 12 12 11 11 12
22 21 20 19 18 17 17 17 16 16 16 17 17 16 16 16 16 16 15 15 14 14 13 13 13 13 13 13 13 13 13 13 13 13 13 12 12 12 12 12 12 11 11
21 21 20 19 19 18 17 17 17 17 17 17 17 17 16 17 16 16 16 15 15 14 14 14 13 13 13 13 13 13 13 13 13 13 13 13 12 12 12 12 12 11 11
20 20 20 19 19 18 18 17 17 17 17 17 17 17 17 17 17 16 16 16 15 15 14 14 14 13 13 13 13 13 13 13 13 13 13 13 12 12 12 12 11 11 10
20 20 19 19 19 18 18 18 18 18 17 17 17 17 17 16 16 16 16 15 15 15 14 14 14 13 13 13 13 13 13 13 13 13 13 13 13 12 12 12 11 10 10
20 20 20 20 19 19 19 18 18 18 17 17 17 17 16 16 16 15 15 15 15 14 14 13 13 13 13 13 13 12 12 12 12 13 12 12 12 12 12 12 11 11 10
21 21 20 20 20 20 19 19 18 18 18 17 17 16 16 15 15 14 14 14 14 13 13 13 12 12 12 12 12 12 12 12 12 12 12 12 12 12 12 12 12 11 11
20 20 20 20 20 20 19 18 18 17 17 17 16 16 15 15 14 14 13 13 13 12 12 12 12 12 12 12 12 12 12 12 12 12 12 12 12 12 12 12 12 12 11
19 19 20 20 20 19 19 18 17 17 16 16 15 15 14 14 14 13 13 13 13 12 12 12 12 12 12 12 12 12 12 12 12 12 12 12 12 12 12 12 12 12 12
18 18 19 19 19 19 18 17 16 15 14 14 14 13 13 13 13 13 13 12 12 12 12 12 12 12 12 12 11 12 12 12 12 13 13 13 13 13 12 12 12 12 12
18 18 18 18 18 18 17 16 15 14 13 13 13 13 13 13 13 12 12 12 12 11 11 11 11 11 11 11 10 10 10 10 11 12 12 12 12 12 12 12 12 12 12
17 17 17 17 17 17 16 15 14 13 12 12 12 12 12 12 12 11 11 11 11 11 11 10 10 10 9 10 9 9 10 10 10 11 11 11 12 12 12 12 12 12 12
15 15 16 16 15 15 14 14 13 13 13 12 11 11 11 11 11 11 11 11 11 10 10 10 10 9 9 9 9 9 9 9 9 9 10 10 11 11 11 11 11 11 11
14 14 14 14 14 13 13 13 13 12 12 11 12 12 12 11 11 11 11 10 10 10 9 9 9 9 8 8 8 8 8 8 8 7 8 8 8 9 9 9 9 10 10
13 13 13 14 13 13 13 12 12 12 12 12 12 12 11 11 11 10 10 9 9 8 8 8 8 8 7 7 7 7 6 5 5 5 5 6 6 7 7 8 8 9 9
Wind_Speed
5 8 15 17 17 16 15 13 11 9 7 6 6 5 4 2 1 1 1 0 1 2 3 4 3 2 4 5 4 4 3 3 4 4 4 6 4 3 4 3 2 1 4
7 12 16 16 16 16 15 13 11 9 7 6 6 5 4 3 3 2 1 2 2 2 3 3 3 3 3 4 4 3 3 3 3 2 3 5 6 2 1 2 2 3 6
6 12 14 15 15 16 15 13 11 9 7 7 6 5 5 4 3 1 1 2 2 2 3 3 3 3 3 4 4 3 3 2 1 3 3 4 6 4 3 1 2 4 5
8 13 12 14 16 16 14 13 11 9 8 8 6 6 6 4 2 1 2 3 3 3 4 5 5 3 1 3 4 3 3 3 2 4 6 7 7 7 5 4 3 2 3
8 12 13 15 16 15 14 12 11 9 9 8 7 6 6 5 3 2 3 4 4 4 5 6 6 5 3 3 3 3 4 4 2 4 6 8 8 9 5 5 4 4 3
9 11 13 16 16 15 14 13 11 10 10 9 7 7 7 6 4 4 4 4 5 5 6 7 7 7 6 6 6 6 6 3 2 5 5 6 7 9 7 6 5 5 5
9 9 13 17 17 16 14 13 12 11 11 10 9 7 6 6 6 5 5 5 6 7 8 8 9 9 9 9 10 10 8 3 2 4 5 7 9 11 9 8 7 7 6
9 9 11 17 17 16 15 14 13 12 12 10 9 8 7 7 7 7 7 7 8 9 9 9 9 11 12 12 12 12 10 5 4 4 6 9 11 13 12 10 10 9 9
6 6 8 12 14 15 15 15 14 13 12 11 11 10 8 7 8 9 8 9 10 10 11 11 11 11 12 13 13 13 12 8 5 6 7 9 12 15 15 13 12 12 12
6 6 6 8 10 11 13 15 14 14 13 12 12 11 10 9 9 10 9 9 11 12 12 13 13 13 13 14 14 14 14 12 7 7 8 10 14 17 18 16 15 15 15
6 6 6 6 7 9 10 12 13 13 13 12 11 11 11 9 9 9 11 10 12 13 13 14 15 15 14 14 15 15 15 10 8 9 10 12 16 19 20 20 18 18 18
8 7 7 7 7 8 9 9 9 10 10 10 9 9 9 9 9 9 10 11 13 14 14 16 16 16 14 11 12 14 11 10 9 9 12 16 19 21 22 23 22 21 21
6 7 9 9 7 6 5 6 7 8 8 9 10 10 9 8 7 7 6 7 9 10 10 12 13 11 10 9 9 10 11 11 10 11 14 19 21 23 24 24 25 25 24
6 7 8 9 8 7 6 5 5 5 5 6 10 11 8 4 4 5 4 6 7 8 8 9 8 11 11 12 11 9 10 10 11 12 15 21 23 25 27 27 27 28 28
7 8 8 8 9 8 7 5 4 5 6 8 10 11 11 4 6 4 4 6 7 9 7 6 7 7 8 8 10 10 9 11 13 14 15 21 24 25 27 30 30 30 30
8 9 9 11 11 10 9 9 8 6 7 8 8 11 12 9 5 6 6 5 6 8 9 8 8 9 9 8 10 10 11 11 12 14 16 18 24 27 28 29 31 32 32
7 8 9 11 12 12 12 11 9 7 7 5 7 11 12 11 8 5 6 7 7 10 9 8 7 6 9 9 12 12 11 11 12 13 15 16 18 23 28 30 32 33 34
7 6 7 8 10 12 12 10 8 5 6 5 7 8 9 10 10 5 7 9 7 7 5 7 7 7 10 10 11 11 11 11 13 13 13 15 15 17 22 30 32 34 35
7 7 5 4 6 9 10 7 6 4 5 3 4 4 6 8 10 7 8 8 7 5 6 8 8 7 10 11 11 12 11 11 13 14 15 15 15 17 18 24 29 32 35
8 8 8 7 5 2 3 3 2 1 1 1 2 3 5 6 8 6 7 8 7 7 7 8 11 10 11 12 13 13 12 12 12 13 15 15 15 16 18 19 19 21 30
11 11 11 11 9 5 3 3 2 2 2 3 3 4 5 5 5 3 4 6 6 6 8 9 9 11 11 9 8 11 12 13 14 14 14 15 16 17 15 16 15 15 15
10 10 11 12 11 9 5 4 4 5 6 6 8 10 12 11 11 8 8 7 7 6 7 8 8 7 7 6 5 7 8 7 9 12 12 13 15 14 16 18 18 17 14
11 10 11 13 14 13 10 7 7 6 5 7 8 8 8 11 12 10 9 8 8 7 7 8 8 8 8 7 6 7 9 9 6 6 9 12 14 13 14 14 17 18 18
8 9 11 13 14 14 12 13 14 10 8 6 5 6 8 9 10 11 9 8 8 7 8 8 9 7 8 8 7 6 9 10 12 10 6 7 10 12 14 13 14 16 17
7 8 10 12 14 12 12 12 12 10 6 5 5 8 9 8 8 11 9 8 9 8 8 9 9 9 6 7 7 8 9 10 9 12 15 10 8 8 10 12 13 13 15
7 8 9 12 12 11 12 11 11 10 9 9 9 9 7 6 7 10 9 9 9 8 9 9 9 9 8 8 7 7 7 7 10 10 14 16 14 10 10 10 10 11 12
Wind_Direction
211 198 194 176 167 163 158 156 155 156 156 157 156 159 145 145 153 120 81 291 287 293 278 238 209 175 144 131 125 117 124 116 87 73 29 12 24 65 75 58 112 139 139
169 180 191 179 171 165 162 159 158 164 172 179 176 169 158 164 172 172 225 268 263 282 282 255 234 237 198 158 137 143 165 136 98 60 15 357 350 340 91 36 124 154 128
152 171 189 181 174 168 164 159 160 169 181 191 190 173 169 160 153 151 263 278 277 287 294 301 278 252 226 178 152 168 189 181 203 336 318 310 306 276 194 166 106 127 116
160 168 182 181 176 171 165 161 168 179 190 195 195 186 181 168 164 205 262 273 270 273 284 300 303 267 213 170 164 185 210 229 282 316 289 274 277 270 210 204 199 162 140
157 165 175 181 179 175 168 169 177 189 196 199 203 201 196 179 179 229 257 269 267 263 269 277 290 273 256 256 227 226 232 239 309 326 278 257 262 269 225 214 211 205 198
159 164 175 183 182 178 174 177 186 195 198 202 209 214 210 197 205 232 250 260 260 260 261 264 266 268 257 261 261 257 249 243 323 327 278 247 251 263 236 222 218 214 215
162 169 180 186 185 183 183 186 193 199 201 204 211 216 214 217 226 231 244 254 251 251 254 258 257 257 260 261 263 264 259 220 251 304 271 247 248 255 242 225 223 222 220
166 173 185 191 190 190 192 194 199 203 206 210 215 213 218 229 232 233 240 249 253 252 253 256 260 260 260 263 265 265 266 237 238 269 270 249 249 254 250 237 232 232 231
168 173 187 195 195 196 197 199 204 208 213 217 220 218 221 233 242 248 251 251 258 260 258 257 260 265 266 267 268 268 270 261 240 251 267 255 250 253 257 249 241 241 239
179 188 189 196 196 197 200 204 208 214 220 225 227 225 221 225 237 250 259 257 262 268 268 265 264 268 272 274 273 272 271 271 255 252 262 262 254 251 257 258 246 244 244
197 200 197 197 197 197 200 208 214 219 225 228 236 234 224 224 235 247 256 258 262 270 276 276 273 274 278 280 280 278 276 268 251 249 257 263 261 254 256 262 257 247 247
201 200 201 202 200 198 205 208 215 220 225 228 230 234 228 226 235 246 257 266 270 275 280 283 282 281 285 284 281 280 275 269 259 255 260 267 265 261 258 259 261 254 249
204 204 206 207 202 196 202 204 213 219 224 229 230 229 229 232 243 255 267 279 284 285 280 278 280 280 278 272 269 266 264 265 262 262 263 268 268 263 260 259 258 258 252
207 214 210 207 205 205 204 207 213 215 219 224 228 227 221 223 230 238 241 250 256 259 260 260 258 258 259 258 256 255 255 256 256 258 261 266 266 265 262 261 261 259 255
228 226 217 206 208 207 208 214 213 217 221 224 227 229 221 214 229 224 227 235 239 242 242 244 247 250 252 253 253 249 247 246 249 250 256 259 262 264 264 261 261 261 260
243 233 218 212 210 205 211 217 221 220 225 224 226 231 227 227 227 235 242 239 239 240 242 242 243 250 254 253 256 250 249 247 248 246 246 251 255 258 261 262 260 260 260
266 249 227 220 210 208 213 218 222 218 219 221 228 231 230 231 233 234 248 251 247 243 242 246 248 249 258 256 258 255 253 250 249 247 246 247 249 252 254 257 259 259 259
321 298 263 240 214 211 215 215 220 210 214 228 233 237 237 239 241 241 252 261 255 245 239 248 252 254 258 259 261 261 256 255 252 251 250 250 248 249 251 253 254 255 257
354 349 338 285 238 217 214 214 217 210 220 238 249 255 255 251 247 243 258 268 271 259 254 258 261 250 265 269 267 267 261 256 256 255 252 249 247 247 247 251 250 251 252
14 20 21 17 354 258 194 188 190 231 288 312 292 276 268 261 256 246 260 272 277 275 273 265 268 266 267 273 279 278 272 262 257 254 253 252 249 246 245 246 249 250 250
26 27 26 31 21 37 72 89 91 50 25 24 15 6 0 353 338 309 302 302 301 289 287 284 280 279 277 274 278 280 273 261 258 257 254 252 251 249 245 244 245 245 249
30 28 35 38 36 40 60 75 84 83 59 55 50 46 42 40 35 32 19 5 352 338 330 321 310 296 288 272 262 282 287 270 247 248 250 250 251 250 247 245 243 241 240
36 31 46 45 45 45 51 66 66 59 51 42 35 35 30 36 35 30 24 17 7 4 351 340 337 322 312 301 262 269 290 292 286 250 245 249 249 248 247 246 244 243 242
38 39 50 53 52 49 54 68 72 72 65 40 30 28 25 28 29 23 17 12 6 2 355 349 349 336 329 325 317 286 285 295 299 299 258 254 260 259 257 256 252 248 245
50 53 57 62 59 55 60 67 74 73 68 51 36 30 24 18 20 17 12 7 2 355 347 343 341 337 331 324 322 317 315 313 303 307 305 302 289 275 273 268 265 260 253
61 61 65 71 63 58 64 64 70 70 58 47 34 25 16 8 9 11 5 1 355 350 343 338 332 328 323 321 320 317 318 315 318 314 308 307 303 298 292 286 279 273 265
Height
1497 1497 1498 1501 1503 1504 1505 1507 1507 1508 1507 1507 1506 1507 1507 1507 1508 1509 1510 1510 1510 1511 1512 1513 1514 1514 1514 1514 1513 1513 1512 1512 1511 1511 1511 1511 1511 1512 1513 1513 1512 1512 1512
1497 1497 1498 1501 1502 1504 1505 1506 1507 1507 1506 1506 1506 1507 1507 1507 1508 1508 1509 1510 1510 1510 1511 1512 1513 1513 1514 1513 1513 1512 1511 1511 1511 1511 1511 1511 1511 1511 1512 1512 1512 1512 1512
1497 1497 1498 1500 1502 1504 1505 1506 1506 1506 1505 1505 1506 1507 1507 1507 1507 1508 1508 1509 1510 1510 1510 1511 1512 1513 1513 1513 1512 1511 1511 1510 1510 1511 1511 1511 1510 1510 1511 1511 1511 1511 1511
1497 1497 1498 1500 1502 1504 1505 1506 1506 1505 1504 1504 1505 1506 1507 1507 1507 1507 1508 1508 1509 1509 1509 1509 1510 1511 1512 1512 1511 1510 1510 1509 1509 1510 1510 1510 1510 1510 1510 1510 1510 1510 1510
1496 1497 1498 1499 1501 1503 1504 1505 1505 1504 1503 1504 1505 1506 1507 1507 1507 1507 1507 1507 1507 1507 1507 1508 1509 1509 1510 1510 1510 1509 1508 1508 1508 1509 1510 1510 1509 1509 1510 1509 1509 1509 1509
1496 1497 1498 1499 1501 1503 1503 1504 1504 1504 1503 1504 1504 1505 1506 1507 1507 1507 1506 1506 1506 1506 1506 1506 1507 1507 1508 1508 1508 1508 1507 1506 1507 1508 1508 1509 1509 1508 1508 1508 1508 1508 1507
1496 1497 1498 1499 1500 1501 1502 1503 1503 1503 1503 1503 1504 1505 1506 1506 1506 1506 1505 1505 1505 1505 1505 1505 1506 1506 1506 1506 1506 1506 1506 1505 1505 1506 1507 1507 1507 1507 1507 1507 1507 1506 1506
1496 1497 1498 1499 1500 1501 1501 1502 1502 1502 1503 1503 1503 1504 1504 1505 1505 1505 1504 1504 1504 1504 1504 1504 1505 1505 1505 1505 1504 1504 1504 1503 1504 1504 1504 1505 1505 1505 1506 1506 1505 1505 1505
1496 1497 1498 1499 1500 1500 1500 1501 1501 1502 1502 1502 1502 1503 1503 1504 1504 1503 1503 1503 1503 1503 1504 1504 1504 1504 1503 1503 1503 1503 1502 1502 1501 1502 1502 1503 1503 1504 1504 1505 1504 1503 1503
1496 1496 1497 1498 1499 1500 1500 1500 1500 1501 1501 1501 1501 1502 1502 1503 1503 1502 1502 1502 1502 1503 1503 1503 1503 1503 1502 1502 1501 1501 1501 1500 1499 1500 1500 1501 1501 1501 1502 1502 1502 1501 1501
1495 1496 1496 1497 1499 1499 1499 1499 1499 1500 1500 1500 1501 1501 1501 1502 1502 1502 1501 1501 1501 1502 1502 1502 1502 1501 1500 1500 1499 1499 1498 1497 1497 1497 1497 1498 1498 1498 1499 1499 1499 1498 1498
1494 1495 1496 1496 1497 1498 1498 1499 1499 1499 1499 1500 1500 1501 1501 1501 1501 1501 1501 1500 1500 1501 1501 1500 1500 1499 1498 1497 1496 1496 1495 1494 1494 1493 1494 1494 1494 1494 1494 1495 1495 1495 1494
1493 1494 1495 1495 1496 1497 1498 1498 1499 1499 1499 1499 1500 1500 1501 1501 1501 1500 1500 1500 1500 1499 1499 1499 1498 1497 1496 1495 1494 1492 1491 1490 1490 1489 1489 1489 1489 1489 1489 1489 1490 1490 1489
1491 1493 1494 1494 1495 1496 1496 1497 1498 1498 1498 1499 1499 1500 1500 1500 1500 1500 1499 1499 1499 1498 1498 1497 1496 1495 1494 1492 1491 1489 1488 1487 1485 1484 1484 1484 1483 1483 1483 1483 1483 1483 1483
1489 1491 1492 1492 1493 1494 1494 1495 1495 1496 1497 1498 1498 1499 1499 1499 1499 1499 1498 1498 1497 1496 1496 1495 1493 1492 1491 1489 1487 1486 1484 1483 1481 1479 1478 1478 1477 1476 1475 1475 1475 1476 1477
1486 1487 1488 1489 1490 1491 1491 1492 1493 1494 1495 1496 1496 1497 1497 1497 1497 1497 1496 1495 1494 1494 1492 1491 1489 1488 1486 1484 1482 1481 1479 1478 1476 1474 1472 1471 1470 1469 1468 1467 1467 1467 1467
1483 1484 1484 1485 1486 1487 1488 1489 1490 1491 1492 1493 1494 1495 1495 1495 1495 1494 1493 1492 1491 1490 1488 1486 1484 1482 1480 1478 1476 1474 1472 1471 1468 1467 1465 1463 1462 1461 1460 1459 1457 1457 1457
1480 1480 1481 1481 1481 1483 1484 1486 1487 1489 1490 1490 1491 1492 1492 1492 1492 1491 1489 1488 1487 1485 1483 1481 1479 1476 1474 1472 1469 1467 1464 1462 1460 1458 1456 1454 1453 1451 1450 1449 1448 1447 1446
1477 1477 1477 1477 1477 1478 1480 1482 1484 1485 1486 1488 1488 1488 1488 1488 1487 1486 1485 1483 1482 1480 1478 1475 1473 1470 1467 1465 1462 1459 1456 1453 1451 1450 1447 1445 1444 1441 1439 1438 1437 1436 1435
1476 1476 1475 1475 1474 1474 1475 1477 1479 1481 1483 1484 1484 1484 1484 1483 1482 1481 1480 1479 1477 1475 1472 1470 1467 1465 1462 1459 1455 1451 1449 1446 1443 1440 1438 1436 1433 1431 1429 1427 1426 1423 1423
1477 1476 1475 1474 1473 1473 1474 1475 1476 1478 1480 1480 1480 1480 1479 1479 1478 1477 1475 1474 1472 1470 1468 1465 1462 1459 1456 1454 1449 1443 1439 1438 1435 1433 1430 1427 1424 1422 1420 1418 1416 1414 1411
1478 1478 1476 1475 1475 1474 1474 1475 1476 1477 1478 1479 1479 1479 1478 1477 1476 1474 1472 1470 1468 1466 1463 1461 1457 1453 1450 1449 1444 1438 1431 1427 1424 1423 1421 1418 1415 1413 1410 1408 1406 1404 1402
1480 1479 1478 1477 1477 1476 1477 1477 1477 1478 1479 1480 1479 1479 1478 1476 1475 1473 1471 1468 1466 1463 1460 1457 1453 1449 1445 1443 1441 1437 1429 1419 1415 1413 1411 1409 1406 1402 1400 1398 1396 1394 1392
1481 1481 1481 1480 1479 1479 1479 1479 1479 1480 1480 1480 1480 1480 1478 1476 1474 1472 1469 1467 1464 1461 1457 1454 1450 1446 1442 1438 1435 1432 1428 1421 1414 1403 1400 1400 1398 1394 1391 1388 1385 1383 1381
1483 1483 1483 1483 1482 1482 1482 1482 1481 1481 1482 1482 1481 1480 1478 1475 1473 1470 1467 1464 1461 1457 1454 1450 1447 1443 1439 1434 1430 1425 1421 1416 1412 1405 1394 1390 1389 1387 1384 1381 1377 1374 1371
1485 1485 1485 1485 1484 1485 1484 1484 1484 1483 1483 1482 1480 1478 1476 1473 1471 1467 1464 1460 1457 1453 1450 1446 1442 1438 1434 1430 1425 1420 1416 1411 1406 1401 1393 1384 1379 1375 1374 1372 1369 1366 1362